Change the Weather History Date:

Thursday, November 7, 2013

  Actual Average Record
Temperature  
Mean Temperature 45 °F -  
Max Temperature 55 °F 41 °F 62 °F (2011)
Min Temperature 35 °F 24 °F 10 °F (2012)
Degree Days  
Heating Degree Days 20    
Moisture  
Dew Point 39 °F    
Average Humidity 79    
Maximum Humidity 97    
Minimum Humidity 61    
Precipitation  
Precipitation 0.11 in - - ()
Sea Level Pressure  
Sea Level Pressure 29.75 in    
Wind  
Wind Speed 4 mph (WNW)    
Max Wind Speed 12 mph    
Max Gust Speed 21 mph    
Visibility 10 miles    
Events Rain    
Averages and records for this station are not official NWS values.
T = Trace of Precipitation, MM = Missing Value Source: NWS Daily Summary

Daily Weather History Graph

Daily Weather History Graph

Search for Another Location

Airport or City:

Trip Planner

Search our weather history database for the weather conditions in past years. The results will help you decide how hot, cold, wet, or windy it might be!

Date:

Astronomy

Nov. 07, 2013 Rise Set
Actual Time 6:30 AM EST 4:25 PM EST
Civil Twilight 5:59 AM EST 4:56 PM EST
Nautical Twilight 5:25 AM EST 5:31 PM EST
Astronomical Twilight 4:50 AM EST 6:05 PM EST
Moon 10:39 AM EST (11/7) 8:31 PM EST (11/7)
Length of Visible Light 10h 56m
Length of Day
9h 54m
Waxing Crescent, 22% of the Moon is Illuminated
Nov 7
Waxing Crescent
Nov 10
First Quarter
Nov 17
Full
Nov 25
Last Quarter
Dec 2
New

Hourly Weather History & Observations

Time (EST) Temp. Windchill Dew Point Humidity Pressure Visibility Wind Dir Wind Speed Gust Speed Precip Events Conditions
12:52 AM 42.1 °F - 37.9 °F 85% 29.88 in 10.0 mi Calm Calm - N/A   Mostly Cloudy
1:52 AM 43.0 °F - 39.0 °F 86% 29.85 in 10.0 mi Calm Calm - N/A   Overcast
2:52 AM 44.1 °F - 39.9 °F 85% 29.82 in 10.0 mi Calm Calm - N/A   Overcast
3:52 AM 45.0 °F - 39.9 °F 82% 29.80 in 10.0 mi Calm Calm - N/A   Overcast
4:52 AM 48.0 °F - 42.1 °F 80% 29.78 in 10.0 mi Variable 3.5 mph - N/A   Overcast
5:52 AM 55.9 °F - 48.9 °F 77% 29.76 in 10.0 mi SW 9.2 mph - N/A   Overcast
6:52 AM 53.1 °F - 50.0 °F 89% 29.75 in 10.0 mi SE 3.5 mph - 0.00 in   Overcast
7:07 AM 53.6 °F - 50.0 °F 88% 29.72 in 8.0 mi ESE 4.6 mph - N/A   Overcast
7:52 AM 52.0 °F - 51.1 °F 97% 29.74 in 6.0 mi Variable 3.5 mph - 0.00 in Rain Light Rain
8:52 AM 53.1 °F - 51.1 °F 93% 29.72 in 9.0 mi SE 8.1 mph - 0.02 in Rain Light Rain
9:07 AM 53.6 °F - 51.8 °F 94% 29.70 in 10.0 mi SSE 6.9 mph - 0.01 in Rain Light Rain
9:52 AM 53.1 °F - 52.0 °F 96% 29.70 in 8.0 mi Calm Calm - 0.02 in Rain Light Rain
10:52 AM 53.1 °F - 51.1 °F 93% 29.68 in 10.0 mi South 4.6 mph - 0.01 in Rain Light Rain
11:52 AM 50.0 °F - 46.0 °F 86% 29.71 in 7.0 mi West 10.4 mph - 0.06 in Rain Light Rain
12:52 PM 48.0 °F - 45.0 °F 89% 29.68 in 5.0 mi Variable 6.9 mph - N/A Rain Light Rain
1:52 PM 46.9 °F - 43.0 °F 86% 29.67 in 10.0 mi NW 10.4 mph 18.4 mph 0.00 in   Unknown
2:02 PM 46.0 °F 40.6 °F 42.1 °F 86% 29.67 in 10.0 mi NW 11.5 mph 20.7 mph 0.00 in Rain Light Rain
2:52 PM 45.0 °F 40.1 °F 39.0 °F 80% 29.69 in 10.0 mi WNW 9.2 mph - 0.00 in   Mostly Cloudy
3:52 PM 42.1 °F 40.2 °F 36.0 °F 79% 29.72 in 10.0 mi Variable 3.5 mph - N/A   Clear
4:52 PM 41.0 °F 38.0 °F 33.1 °F 73% 29.73 in 10.0 mi Variable 4.6 mph - N/A   Mostly Cloudy
5:36 PM 39.9 °F 35.1 °F 32.0 °F 73% 29.75 in 10.0 mi WNW 6.9 mph - N/A   Overcast
5:52 PM 39.9 °F 35.8 °F 32.0 °F 73% 29.76 in 10.0 mi WNW 5.8 mph 20.7 mph N/A   Overcast
6:27 PM 39.0 °F 33.4 °F 30.0 °F 70% 29.77 in 10.0 mi WNW 8.1 mph - N/A   Overcast
6:52 PM 39.0 °F 34.8 °F 28.9 °F 67% 29.77 in 10.0 mi WNW 5.8 mph - N/A   Overcast
7:10 PM 39.0 °F 31.8 °F 30.0 °F 70% 29.76 in 10.0 mi WNW 11.5 mph 18.4 mph N/A   Overcast
7:47 PM 39.2 °F 35.0 °F 28.4 °F 65% 29.77 in 10.0 mi NW 5.8 mph - N/A   Overcast
7:52 PM 39.0 °F 32.8 °F 28.0 °F 65% 29.77 in 10.0 mi NW 9.2 mph - N/A   Overcast
8:52 PM 37.9 °F 31.5 °F 26.1 °F 62% 29.77 in 10.0 mi NW 9.2 mph - N/A   Overcast
9:52 PM 36.0 °F 29.0 °F 24.1 °F 62% 29.76 in 10.0 mi WNW 9.2 mph - N/A   Overcast
10:52 PM 35.1 °F 27.9 °F 23.0 °F 61% 29.76 in 10.0 mi WNW 9.2 mph 18.4 mph N/A   Overcast
11:52 PM 35.1 °F 27.4 °F 23.0 °F 61% 29.76 in 10.0 mi WNW 10.4 mph - N/A   Overcast